RPC2841 RPLL-RPLL

Flight info

Callsign RPC2841
Flight time 0h 38m
Altitude 1000
Route VFR CIRCUITS
Aircraft C172/L-SFG/C

Departure

Time 2026-05-04 15:33
Airport Ninoy Aquino International Airport (RPLL)

Arrival

Time 2026-05-04 16:12
Airport Ninoy Aquino International Airport (RPLL)
Time Latitude Longitude Altitude Speed Heading
2026-05-04 15:05 14.52642 121.00084 49 ft 0 kts 279°
2026-05-04 15:15 14.52641 121.00086 49 ft 2 kts 279°
2026-05-04 15:15 14.52637 121.00092 48 ft 2 kts 28°
2026-05-04 15:15 14.52639 121.00103 48 ft 0 kts 98°
2026-05-04 15:23 14.52637 121.00111 48 ft 7 kts 101°
2026-05-04 15:24 14.52549 121.00213 48 ft 13 kts 135°
2026-05-04 15:24 14.52415 121.00352 48 ft 14 kts 134°
2026-05-04 15:25 14.52401 121.00366 48 ft 0 kts 134°
2026-05-04 15:31 14.52348 121.00420 47 ft 21 kts 134°
2026-05-04 15:31 14.52163 121.00606 42 ft 58 kts 133°
2026-05-04 15:32 14.50966 121.01933 296 ft 102 kts 129°
2026-05-04 15:32 14.50073 121.03130 554 ft 108 kts 125°
2026-05-04 15:33 14.48942 121.04087 820 ft 111 kts 167°
2026-05-04 15:34 14.46837 121.02850 965 ft 134 kts 236°
2026-05-04 15:34 14.46471 121.01937 919 ft 141 kts 258°
2026-05-04 15:34 14.47147 121.00063 716 ft 143 kts 320°
2026-05-04 15:35 14.48551 120.98690 670 ft 136 kts 316°
2026-05-04 15:35 14.49257 120.98015 601 ft 138 kts 318°
2026-05-04 15:35 14.49969 120.97355 578 ft 136 kts 319°
2026-05-04 15:36 14.51391 120.96106 635 ft 134 kts 321°
2026-05-04 15:36 14.52075 120.95439 631 ft 136 kts 318°
2026-05-04 15:36 14.52804 120.94871 700 ft 126 kts 343°
2026-05-04 15:37 14.53626 120.94948 680 ft 121 kts 33°
2026-05-04 15:37 14.54353 120.95456 694 ft 119 kts 37°
2026-05-04 15:37 14.54971 120.95884 720 ft 107 kts 36°
2026-05-04 15:37 14.55424 120.96392 741 ft 94 kts 78°
2026-05-04 15:38 14.55324 120.97058 714 ft 91 kts 103°
2026-05-04 15:38 14.55052 120.97633 663 ft 88 kts 125°
2026-05-04 15:38 14.54624 120.98090 562 ft 88 kts 130°
2026-05-04 15:38 14.54226 120.98515 552 ft 75 kts 129°
2026-05-04 15:39 14.53835 120.98910 504 ft 82 kts 134°
2026-05-04 15:39 14.53408 120.99324 460 ft 86 kts 131°
2026-05-04 15:39 14.52547 121.00213 155 ft 83 kts 133°
2026-05-04 15:40 14.52135 121.00647 49 ft 81 kts 133°
2026-05-04 15:40 14.51780 121.01028 56 ft 80 kts 134°
2026-05-04 15:40 14.51355 121.01464 154 ft 92 kts 131°
2026-05-04 15:40 14.50897 121.01957 260 ft 100 kts 132°
2026-05-04 15:41 14.50445 121.02508 454 ft 98 kts 126°
2026-05-04 15:41 14.50047 121.03077 620 ft 102 kts 126°
2026-05-04 15:41 14.49502 121.03456 911 ft 92 kts 154°
2026-05-04 15:41 14.48771 121.03550 955 ft 116 kts 186°
2026-05-04 15:42 14.48034 121.03131 924 ft 132 kts 234°
2026-05-04 15:42 14.47979 121.02250 985 ft 132 kts 292°
2026-05-04 15:42 14.48506 121.01432 937 ft 140 kts 313°
2026-05-04 15:42 14.49195 121.00695 808 ft 148 kts 316°
2026-05-04 15:43 14.49930 120.99963 780 ft 144 kts 319°
2026-05-04 15:43 14.50644 120.99276 748 ft 141 kts 318°
2026-05-04 15:43 14.51300 120.98514 639 ft 143 kts 314°
2026-05-04 15:43 14.51966 120.97751 631 ft 141 kts 315°
2026-05-04 15:44 14.52630 120.97019 656 ft 138 kts 315°
2026-05-04 15:44 14.53278 120.96300 594 ft 137 kts 314°
2026-05-04 15:44 14.53937 120.95606 626 ft 132 kts 316°
2026-05-04 15:44 14.54595 120.94962 704 ft 127 kts 320°
2026-05-04 15:45 14.55180 120.94245 668 ft 135 kts 307°
2026-05-04 15:45 14.55701 120.93464 813 ft 122 kts 306°
2026-05-04 15:45 14.56245 120.92812 920 ft 117 kts 327°
2026-05-04 15:45 14.57017 120.92782 1010 ft 114 kts 31°
2026-05-04 15:46 14.57566 120.93382 963 ft 119 kts 53°
2026-05-04 15:46 14.57810 120.94161 996 ft 116 kts 99°
2026-05-04 15:46 14.57448 120.94925 998 ft 121 kts 121°
2026-05-04 15:46 14.56928 120.95626 926 ft 125 kts 127°
2026-05-04 15:47 14.56347 120.96302 890 ft 129 kts 131°
2026-05-04 15:47 14.55714 120.96977 776 ft 132 kts 135°
2026-05-04 15:47 14.55064 120.97617 669 ft 116 kts 135°
2026-05-04 15:47 14.54570 120.98108 582 ft 88 kts 132°
2026-05-04 15:48 14.54206 120.98485 461 ft 68 kts 131°
2026-05-04 15:48 14.53881 120.98840 440 ft 69 kts 130°
2026-05-04 15:48 14.53255 120.99490 303 ft 67 kts 136°
2026-05-04 15:49 14.52897 120.99861 277 ft 79 kts 129°
2026-05-04 15:49 14.52493 121.00276 117 ft 85 kts 134°
2026-05-04 15:49 14.52105 121.00668 47 ft 64 kts 135°
2026-05-04 15:49 14.51839 121.00950 38 ft 62 kts 138°
2026-05-04 15:50 14.51487 121.01315 133 ft 77 kts 131°
2026-05-04 15:50 14.51103 121.01742 277 ft 84 kts 130°
2026-05-04 15:50 14.50720 121.02221 436 ft 89 kts 127°
2026-05-04 15:50 14.50350 121.02761 640 ft 93 kts 125°
2026-05-04 15:51 14.49887 121.03199 929 ft 92 kts 148°
2026-05-04 15:51 14.49237 121.03094 1016 ft 114 kts 216°
2026-05-04 15:51 14.48613 121.02527 1029 ft 126 kts 220°
2026-05-04 15:51 14.48009 121.01843 1062 ft 130 kts 239°
2026-05-04 15:52 14.48020 121.00918 1069 ft 132 kts 297°
2026-05-04 15:52 14.48553 121.00164 973 ft 128 kts 314°
2026-05-04 15:52 14.49135 120.99489 808 ft 125 kts 315°
2026-05-04 15:52 14.49714 120.98893 691 ft 114 kts 318°
2026-05-04 15:53 14.50250 120.98361 657 ft 95 kts 322°
2026-05-04 15:53 14.50723 120.97904 638 ft 103 kts 319°
2026-05-04 15:53 14.51242 120.97323 671 ft 115 kts 311°
2026-05-04 15:53 14.51754 120.96668 725 ft 119 kts 307°
2026-05-04 15:54 14.52250 120.95973 816 ft 120 kts 307°
2026-05-04 15:54 14.52724 120.95257 913 ft 121 kts 303°
2026-05-04 15:54 14.53174 120.94528 941 ft 121 kts 303°
2026-05-04 15:54 14.53623 120.93802 1003 ft 118 kts 304°
2026-05-04 15:55 14.54031 120.93068 923 ft 117 kts 301°
2026-05-04 15:55 14.54444 120.92345 871 ft 115 kts 303°
2026-05-04 15:55 14.54962 120.91769 861 ft 109 kts 346°
2026-05-04 15:55 14.55629 120.92028 811 ft 104 kts 38°
2026-05-04 15:56 14.56194 120.92494 754 ft 104 kts 42°
2026-05-04 15:56 14.56736 120.92988 747 ft 102 kts 45°
2026-05-04 15:56 14.57228 120.93477 760 ft 97 kts 48°
2026-05-04 15:56 14.57604 120.93986 859 ft 78 kts 82°
2026-05-04 15:57 14.57447 120.94507 904 ft 79 kts 113°
2026-05-04 15:57 14.57286 120.94839 878 ft 80 kts 116°
2026-05-04 15:57 14.56886 120.95535 899 ft 86 kts 121°
2026-05-04 15:57 14.56498 120.96038 933 ft 94 kts 127°
2026-05-04 15:58 14.56058 120.96577 897 ft 99 kts 129°
2026-05-04 15:58 14.55582 120.97108 813 ft 105 kts 132°
2026-05-04 15:58 14.55224 120.97462 761 ft 106 kts 133°
2026-05-04 15:58 14.54697 120.97976 686 ft 104 kts 133°
2026-05-04 15:59 14.54179 120.98518 555 ft 107 kts 132°
2026-05-04 15:59 14.53665 120.99067 419 ft 100 kts 131°
2026-05-04 15:59 14.53034 120.99717 240 ft 93 kts 133°
2026-05-04 15:59 14.52734 121.00032 151 ft 93 kts 133°
2026-05-04 16:00 14.52277 121.00502 57 ft 89 kts 133°
2026-05-04 16:00 14.51902 121.00887 77 ft 79 kts 133°
2026-05-04 16:00 14.51483 121.01331 149 ft 92 kts 132°
2026-05-04 16:00 14.51031 121.01801 280 ft 94 kts 133°
2026-05-04 16:01 14.50580 121.02305 414 ft 97 kts 131°
2026-05-04 16:01 14.50128 121.02822 637 ft 95 kts 130°
2026-05-04 16:01 14.49670 121.03372 718 ft 106 kts 130°
2026-05-04 16:01 14.49181 121.03975 771 ft 114 kts 129°
2026-05-04 16:02 14.48584 121.04475 944 ft 111 kts 160°
2026-05-04 16:02 14.47808 121.04312 970 ft 122 kts 211°
2026-05-04 16:02 14.46839 121.02830 1075 ft 124 kts 233°
2026-05-04 16:03 14.46139 121.02411 1091 ft 120 kts 178°
2026-05-04 16:03 14.45415 121.02760 1144 ft 115 kts 124°
2026-05-04 16:03 14.45346 121.03541 1116 ft 118 kts 64°
2026-05-04 16:03 14.46044 121.04012 1028 ft 131 kts
2026-05-04 16:04 14.46900 121.03690 967 ft 141 kts 313°
2026-05-04 16:04 14.46562 121.01894 868 ft 138 kts 228°
2026-05-04 16:04 14.46015 121.01086 817 ft 135 kts 233°
2026-05-04 16:05 14.45526 121.00268 834 ft 137 kts 236°
2026-05-04 16:05 14.45059 120.99416 793 ft 135 kts 238°
2026-05-04 16:05 14.44166 120.97690 787 ft 137 kts 240°
2026-05-04 16:06 14.43745 120.96774 634 ft 144 kts 243°
2026-05-04 16:06 14.43489 120.94478 581 ft 120 kts 311°
2026-05-04 16:07 14.44430 120.93890 582 ft 117 kts 340°
2026-05-04 16:07 14.46418 120.93673 677 ft 76 kts 67°
2026-05-04 16:08 14.46645 120.94150 613 ft 75 kts 70°
2026-05-04 16:08 14.47411 120.95673 535 ft 68 kts 66°
2026-05-04 16:09 14.47917 120.96622 503 ft 82 kts 64°
2026-05-04 16:09 14.48478 120.97641 466 ft 84 kts 62°
2026-05-04 16:10 14.49066 120.98694 376 ft 86 kts 64°
2026-05-04 16:11 14.49993 121.00369 91 ft 88 kts 63°
2026-05-04 16:11 14.50210 121.00804 59 ft 51 kts 76°
2026-05-04 16:12 14.50498 121.01188 55 ft 8 kts 326°
2026-05-04 16:12 14.50590 121.01179 53 ft 5 kts 66°
2026-05-04 16:13 14.50638 121.01260 51 ft 11 kts 60°
2026-05-04 16:13 14.50740 121.01454 45 ft 20 kts 64°
2026-05-04 16:14 14.50900 121.01724 29 ft 19 kts 46°
2026-05-04 16:14 14.51119 121.01551 24 ft 26 kts 315°
2026-05-04 16:15 14.51417 121.01380 28 ft 34 kts 316°
2026-05-04 16:16 14.51689 121.01098 35 ft 23 kts 318°
2026-05-04 16:16 14.52057 121.00724 41 ft 26 kts 313°
2026-05-04 16:17 14.52008 121.00619 42 ft 9 kts 194°
2026-05-04 16:18 14.51800 121.00536 42 ft 0 kts 244°
2026-05-04 16:21 14.51796 121.00533 42 ft 8 kts 206°
2026-05-04 16:22 14.51852 121.00506 42 ft 18 kts 251°
2026-05-04 16:22 14.51785 121.00516 42 ft 0 kts 179°
2026-05-04 16:23 14.51777 121.00485 42 ft 7 kts 323°
2026-05-04 16:24 14.51814 121.00498 42 ft 0 kts 101°
2026-05-04 16:25 14.51802 121.00508 42 ft 5 kts 175°